Location: Shaver Recreation Center
(34.6784°N, 82.9656°W)
Time: 15:02:16
(UTC-04:00)

ISS - Visible Passes

Search period start: 26 May 2019 00:00
Search period end: 05 June 2019 00:00
Orbit: 408 x 418 km, 51.6° (Epoch: 27 May)

Date Brightness Start Highest point End Pass type
(mag) Time Alt. Az. Time Alt. Az. Time Alt. Az.
29 May -0.2 00:25:20 10° NNW 00:25:29 11° NNW 00:25:29 11° NNW visible
29 May -0.9 23:36:16 10° NNW 23:37:39 16° N 23:37:39 16° N visible
30 May -1.0 22:47:34 10° N 22:48:55 12° NNE 22:49:49 11° NE visible
31 May -1.3 23:33:19 10° NW 23:34:50 23° NNW 23:34:50 23° NNW visible
01 Jun -2.0 22:44:06 10° NNW 22:46:54 24° NE 22:47:04 24° NE visible
02 Jun -1.3 21:55:05 10° N 21:57:12 16° NNE 21:59:20 10° ENE visible
02 Jun -1.3 23:30:50 10° NW 23:32:09 22° WNW 23:32:09 22° WNW visible
03 Jun -3.6 22:41:17 10° NW 22:44:27 66° NNE 22:44:27 66° NNE visible
04 Jun -2.7 21:51:55 10° NNW 21:55:02 35° NE 21:56:48 20° E visible
04 Jun -0.8 23:29:08 10° W 23:29:37 12° W 23:29:37 12° W visible
